DECAYED

STARLINK-31301, 59935 (Decayed)

Orbit data source: Space-Track

STARLINK-31301, 59935 was a payload satellite owned by SpaceX/Seattle (US) in LEO that was launched on Sat, 01 Jun 2024 UTC via an FALCON 9 launch vehicle from the Air Force Eastern Test Range (AFETR). Payload-class satellites include a variety of spacecraft equipped with specific instruments for various scientific and technological missions. These include communications satellites like Starlink; space stations such as the ISS; scientific satellites like the Hubble; Earth observation satellites from companies like Planet Labs, Umbra, and HawkEye 360; GPS; miniature CubeSats for education and research; and military/defense satellites.

Not visible in the next 10 days
Identifier
59935, 2024-106P
Orbit
Decayed
Last TLE update
9 months ago
Origin
Manufacturer
SpaceX/Seattle
Mission
Decayed spacecraft
Bus & Motor
STARLINK V2M, Unknown motor
Mass
730 kg wet, ~700 kg dry
Launch date (UTC)
2024-06-01 (11 months ago)
Launch vehicle
FALCON 9
Launch site
Air Force Eastern Test Range (AFETR)
Object type
Payload
Rocket body
Debris
Shape & HBR
Unknown
Radar Cross Section
Large (>1 m²)

Expand to show TLE details & history

TLE from 9 months ago
0 STARLINK-31301
1 59935U 24106P   24222.71168253  .04949830  92180-5  10098-2 0  9991
2 59935  42.9989 356.0984 0013895 323.8977 127.5343 16.29919159 12262
Epoch: 2024-08-09T17:04Z
Definitive object data (Epoch: 2024-08-09T17:04:49.37Z)
Latitude
43.14335°
Longitude
-126.65723°
Altitude
201.399 km
Speed
7.789 km/s
True Right ascension
05h 52m 55s
True Declination
42° 57' 26"
Sunlit
Object was in daylight at TLE epoch
Visualization observer readout
Visualization observer readout
Orbital elements
Apogee altitude
203.921 km
Perigee altitude
185.655 km
Semi-major axis
6,572.925 km
Eccentricity
0.0013895
Inclination
42.9989°
RAAN
356.0984°
Arg. of periapsis
323.8977°
True anomaly
127.66043°
Mean anomaly
127.5343°
Eccentric anomaly
127.59738°
Mean motion
4.07291 °/min
BSTAR
0.0010098
Orbital period
88.39 mins
Loading maneuver chart data...
Loading SW <> Apogee altitude chart data...
Loading historical data...
Loading historical data...
Loading historical data...
Loading historical data...
Loading historical data...
Loading historical data...
Loading historical data...

STARLINK-31301 Visibility forecast

Observer location: undefined°, undefined°

This satellite is decayed
Span
Click to sort rows by Start time (UTC) header in descending order
Start Az.
Max El. time (UTC)
Max El. Az.
Max El.
End time (UTC)
End Az.
|